Cody, WY

1:21 PM MST on December 12, 2017 (GMT -0700)
Yellowstone Regional

Weather History for KCOD - February, 2014

Change the Weather History Date:

Wednesday, February 19, 2014

  Actual Average Record
Temperature  
Mean Temperature 33 °F -  
Max Temperature 42 °F 45 °F 64 °F (1930)
Min Temperature 24 °F 22 °F -17 °F (1918)
Degree Days  
Heating Degree Days 32    
Moisture  
Dew Point 15 °F    
Average Humidity 48    
Maximum Humidity 100    
Minimum Humidity 21    
Precipitation  
Precipitation 0.02 in - - ()
Sea Level Pressure  
Sea Level Pressure 29.62 in    
Wind  
Wind Speed 12 mph (West)    
Max Wind Speed 24 mph    
Max Gust Speed 36 mph    
Visibility 10 miles    
Events      
Averages and records for this station are not official NWS values.
T = Trace of Precipitation, MM = Missing Value Source: NWS Daily Summary

Daily Weather History Graph

Daily Weather History Graph

Search for Another Location

Airport or City:

Trip Planner

Search our weather history database for the weather conditions in past years. The results will help you decide how hot, cold, wet, or windy it might be!

Date:

Astronomy

Feb. 19, 2014 Rise Set
Actual Time 7:09 AM MST 5:50 PM MST
Civil Twilight 6:40 AM MST 6:20 PM MST
Nautical Twilight 6:06 AM MST 6:54 PM MST
Astronomical Twilight 5:32 AM MST 7:27 PM MST
Moon 11:00 PM MST (2/19) 9:05 AM MST (2/19)
Length of Visible Light 11h 40m
Length of Day
10h 40m
Waning Gibbous, 79% of the Moon is Illuminated
Feb 19
Waning Gibbous
Feb 22
Last Quarter
Mar 1
New
Mar 8
First Quarter
Mar 16
Full

Hourly Weather History & Observations

Time (MST) Temp. Windchill Dew Point Humidity Pressure Visibility Wind Dir Wind Speed Gust Speed Precip Events Conditions
12:15 AM 39.2 °F 30.8 °F 19.4 °F 45% 29.69 in 10.0 mi SE 15.0 mph 19.6 mph N/A   Clear
12:35 AM 37.4 °F 28.5 °F 19.4 °F 48% 29.68 in 10.0 mi SE 15.0 mph 21.9 mph N/A   Clear
12:55 AM 39.2 °F 30.8 °F 19.4 °F 45% 29.66 in 10.0 mi SE 15.0 mph 23.0 mph N/A   Clear
1:15 AM 39.2 °F 35.9 °F 19.4 °F 45% 29.66 in 10.0 mi WSW 4.6 mph - N/A   Clear
1:35 AM 39.2 °F 32.0 °F 19.4 °F 45% 29.65 in 10.0 mi ESE 11.5 mph - N/A   Clear
1:55 AM 37.4 °F 32.1 °F 19.4 °F 48% 29.64 in 10.0 mi SE 6.9 mph - N/A   Clear
2:15 AM 35.6 °F 29.2 °F 21.2 °F 56% 29.61 in 10.0 mi SSE 8.1 mph - N/A   Clear
2:35 AM 37.4 °F 34.9 °F 21.2 °F 52% 29.60 in 10.0 mi North 3.5 mph - N/A   Clear
2:55 AM 41.0 °F 33.5 °F 21.2 °F 45% 29.59 in 10.0 mi WSW 13.8 mph 20.7 mph N/A   Clear
3:15 AM 41.0 °F 32.8 °F 21.2 °F 45% 29.57 in 10.0 mi WSW 16.1 mph 23.0 mph N/A   Clear
3:35 AM 42.8 °F 35.4 °F 21.2 °F 42% 29.56 in 10.0 mi WSW 15.0 mph 23.0 mph N/A   Clear
3:55 AM 42.8 °F 35.4 °F 21.2 °F 42% 29.55 in 10.0 mi West 15.0 mph 26.5 mph N/A   Clear
4:15 AM 41.0 °F 36.4 °F 21.2 °F 45% 29.54 in 10.0 mi North 6.9 mph - N/A   Clear
4:35 AM 39.2 °F 35.9 °F 21.2 °F 49% 29.53 in 10.0 mi WSW 4.6 mph - N/A   Clear
4:55 AM 37.4 °F - 21.2 °F 52% 29.53 in 10.0 mi Calm Calm - N/A   Clear
5:15 AM 39.2 °F 31.6 °F 24.8 °F 56% 29.52 in 10.0 mi WSW 12.7 mph 19.6 mph N/A   Clear
5:35 AM 39.2 °F 30.5 °F 24.8 °F 56% 29.51 in 10.0 mi WSW 16.1 mph 23.0 mph N/A   Clear
5:55 AM 39.2 °F 30.8 °F 24.8 °F 56% 29.50 in 10.0 mi SW 15.0 mph 24.2 mph N/A   Clear
6:15 AM 37.4 °F 28.5 °F 24.8 °F 60% 29.50 in 10.0 mi SW 15.0 mph 25.3 mph N/A   Clear
6:35 AM 37.4 °F 26.9 °F 24.8 °F 60% 29.48 in 10.0 mi SW 20.7 mph 26.5 mph N/A   Clear
6:55 AM 37.4 °F 27.8 °F 26.6 °F 65% 29.46 in 10.0 mi SW 17.3 mph 25.3 mph N/A   Clear
7:15 AM 37.4 °F 27.2 °F 26.6 °F 65% 29.47 in 10.0 mi SW 19.6 mph 28.8 mph N/A   Clear
7:35 AM 37.4 °F 28.2 °F 24.8 °F 60% 29.47 in 10.0 mi SW 16.1 mph 25.3 mph N/A   Clear
7:55 AM 39.2 °F 29.0 °F 26.6 °F 61% 29.46 in 10.0 mi SW 21.9 mph 25.3 mph N/A   Clear
8:15 AM 39.2 °F 29.3 °F 26.6 °F 61% 29.46 in 10.0 mi SW 20.7 mph 27.6 mph N/A   Clear
8:35 AM 39.2 °F 29.6 °F 26.6 °F 61% 29.46 in 10.0 mi SW 19.6 mph 26.5 mph N/A   Clear
8:55 AM 39.2 °F 29.8 °F 28.4 °F 65% 29.46 in 10.0 mi SW 18.4 mph 24.2 mph N/A   Clear
9:15 AM 39.2 °F 33.0 °F 28.4 °F 65% 29.48 in 10.0 mi West 9.2 mph 20.7 mph N/A   Partly Cloudy
9:35 AM 33.8 °F 24.8 °F 24.8 °F 70% 29.51 in 10.0 mi North 12.7 mph 21.9 mph N/A   Mostly Cloudy
9:55 AM 30.2 °F 18.5 °F 26.6 °F 86% 29.57 in 0.8 mi NNW 17.3 mph 31.1 mph N/A   Overcast
10:15 AM 28.4 °F 18.0 °F 26.6 °F 93% 29.55 in 0.5 mi NNE 12.7 mph - N/A   Overcast
10:35 AM 28.4 °F 22.2 °F 28.4 °F 100% 29.56 in 7.0 mi NNE 5.8 mph - N/A   Overcast
10:55 AM 28.4 °F 19.1 °F 28.4 °F 100% 29.58 in 10.0 mi North 10.4 mph - N/A   Overcast
11:15 AM 30.2 °F 22.6 °F 28.4 °F 93% 29.58 in 10.0 mi NNW 8.1 mph - N/A   Mostly Cloudy
11:35 AM 30.2 °F 20.8 °F 28.4 °F 93% 29.59 in 10.0 mi ENE 11.5 mph - N/A   Mostly Cloudy
11:55 AM 33.8 °F 26.4 °F 24.8 °F 70% 29.59 in 10.0 mi West 9.2 mph - N/A   Mostly Cloudy
12:15 PM 37.4 °F 29.3 °F 19.4 °F 48% 29.59 in 10.0 mi West 12.7 mph 24.2 mph N/A   Partly Cloudy
12:35 PM 37.4 °F 29.8 °F 12.2 °F 36% 29.58 in 10.0 mi West 11.5 mph 20.7 mph 0.01 in   Clear
12:55 PM 37.4 °F 30.3 °F 10.4 °F 33% 29.58 in 10.0 mi WSW 10.4 mph 17.3 mph 0.01 in   Clear
1:15 PM 35.6 °F 27.5 °F 10.4 °F 35% 29.59 in 10.0 mi WSW 11.5 mph 21.9 mph N/A   Clear
1:35 PM 37.4 °F 30.3 °F 12.2 °F 36% 29.59 in 10.0 mi WNW 10.4 mph 20.7 mph N/A   Scattered Clouds
1:55 PM 37.4 °F 32.1 °F 10.4 °F 33% 29.58 in 10.0 mi NW 6.9 mph 20.7 mph N/A   Scattered Clouds
2:15 PM 37.4 °F 28.9 °F 8.6 °F 30% 29.59 in 10.0 mi WNW 13.8 mph 26.5 mph N/A   Scattered Clouds
2:35 PM 37.4 °F 29.8 °F 3.2 °F 24% 29.59 in 10.0 mi WNW 11.5 mph 18.4 mph N/A   Partly Cloudy
2:55 PM 37.4 °F 27.2 °F 5.0 °F 26% 29.60 in 10.0 mi West 19.6 mph 35.7 mph 0.01 in   Clear
3:15 PM 35.6 °F 25.5 °F -0.4 °F 22% 29.61 in 10.0 mi WNW 17.3 mph 28.8 mph N/A   Clear
3:35 PM 35.6 °F 27.1 °F 1.4 °F 24% 29.62 in 10.0 mi WNW 12.7 mph 24.2 mph N/A   Clear
3:55 PM 35.6 °F 26.6 °F 1.4 °F 24% 29.63 in 10.0 mi WNW 13.8 mph 31.1 mph N/A   Partly Cloudy
4:15 PM 33.8 °F 22.8 °F -2.2 °F 22% 29.64 in 10.0 mi WNW 18.4 mph 32.2 mph N/A   Scattered Clouds
4:35 PM 33.8 °F 24.8 °F -2.2 °F 22% 29.65 in 10.0 mi WNW 12.7 mph 24.2 mph N/A   Clear
4:55 PM 33.8 °F 23.5 °F -2.2 °F 22% 29.65 in 10.0 mi WNW 16.1 mph 21.9 mph N/A   Clear
5:15 PM 32.0 °F 22.5 °F -4.0 °F 21% 29.66 in 10.0 mi WNW 12.7 mph 18.4 mph N/A   Clear
5:35 PM 30.2 °F 19.8 °F -4.0 °F 23% 29.67 in 10.0 mi West 13.8 mph 20.7 mph N/A   Clear
5:55 PM 32.0 °F 21.6 °F -4.0 °F 21% 29.69 in 10.0 mi WNW 15.0 mph 23.0 mph N/A   Clear
6:15 PM 30.2 °F 22.6 °F -2.2 °F 25% 29.69 in 10.0 mi West 8.1 mph - N/A   Clear
6:35 PM 28.4 °F 21.2 °F -0.4 °F 29% 29.70 in 10.0 mi West 6.9 mph - N/A   Clear
6:55 PM 28.4 °F 20.4 °F 1.4 °F 31% 29.70 in 10.0 mi WSW 8.1 mph - N/A   Clear
7:15 PM 28.4 °F 20.4 °F 6.8 °F 40% 29.71 in 10.0 mi WSW 8.1 mph 17.3 mph N/A   Clear
7:35 PM 28.4 °F 19.7 °F 5.0 °F 37% 29.73 in 10.0 mi WNW 9.2 mph 18.4 mph N/A   Clear
7:55 PM 26.6 °F 11.7 °F 6.8 °F 43% 29.74 in 10.0 mi NW 24.2 mph 29.9 mph N/A   Clear
8:15 PM 24.8 °F 13.4 °F 12.2 °F 59% 29.74 in 10.0 mi WNW 12.7 mph 20.7 mph N/A   Clear
8:35 PM 24.8 °F 16.9 °F 12.2 °F 59% 29.75 in 10.0 mi WNW 6.9 mph - N/A   Clear
8:55 PM 24.8 °F 17.9 °F 10.4 °F 54% 29.75 in 10.0 mi West 5.8 mph - N/A   Clear
9:15 PM 24.8 °F 17.9 °F 10.4 °F 54% 29.77 in 10.0 mi NW 5.8 mph - N/A   Clear
9:35 PM 24.8 °F 19.1 °F 8.6 °F 50% 29.77 in 10.0 mi WSW 4.6 mph - N/A   Clear
9:55 PM 24.8 °F - 8.6 °F 50% 29.77 in 10.0 mi Calm Calm - N/A   Clear
10:15 PM 26.6 °F - 8.6 °F 47% 29.76 in 10.0 mi Calm Calm - N/A   Clear
10:35 PM 26.6 °F 20.0 °F 5.0 °F 40% 29.76 in 10.0 mi South 5.8 mph - N/A   Clear
10:55 PM 26.6 °F 15.7 °F 3.2 °F 37% 29.76 in 10.0 mi West 12.7 mph 19.6 mph N/A   Clear
11:15 PM 26.6 °F 17.5 °F 5.0 °F 40% 29.76 in 10.0 mi WNW 9.2 mph 20.7 mph N/A   Clear
11:35 PM 26.6 °F 13.8 °F 5.0 °F 40% 29.76 in 10.0 mi West 17.3 mph 25.3 mph N/A   Partly Cloudy
11:55 PM 26.6 °F 14.3 °F 6.8 °F 43% 29.78 in 10.0 mi West 16.1 mph 25.3 mph N/A   Scattered Clouds